TIME,�g�[�{�C���[-���� [L],�t���O,�����{�C���[-���� [L],�t���O,�g�[�{�C���[-���� [MJ/h],�t���O,�����{�C���[-���� [MJ/h],�t���O
2004/10/1 0:00,0,0,0,0,0,0,0,0
2004/10/1 0:15,0,0,0,0,0,0,0,0
2004/10/1 0:30,0,0,0,0,0,0,0,0
2004/10/1 0:45,0,0,0,0,0,0,0,0
2004/10/1 1:00,0,0,0,0,0,0,0,0
2004/10/1 1:15,0,0,0,0,0,0,0,0
2004/10/1 1:30,0,0,0,0,0,0,0,0
2004/10/1 1:45,0,0,0,0,0,0,0,0
2004/10/1 2:00,0,0,0,0,0,0,0,0
2004/10/1 2:15,0,0,0,0,0,0,0,0
2004/10/1 2:30,0,0,0,0,0,0,0,0
2004/10/1 2:45,0,0,0,0,0,0,0,0
2004/10/1 3:00,0,0,0,0,0,0,0,0
2004/10/1 3:15,0,0,0,0,0,0,0,0
2004/10/1 3:30,0,0,0,0,0,0,0,0
2004/10/1 3:45,0,0,0,0,0,0,0,0
2004/10/1 4:00,0,0,0,0,0,0,0,0
2004/10/1 4:15,0,0,0,0,0,0,0,0
2004/10/1 4:30,0,0,0,0,0,0,0,0
2004/10/1 4:45,0,0,0,0,0,0,0,0
2004/10/1 5:00,0,0,0,0,0,0,0,0
2004/10/1 5:15,0,0,0,0,0,0,0,0
2004/10/1 5:30,0,0,0,0,0,0,0,0
2004/10/1 5:45,0,0,0,0,0,0,0,0
2004/10/1 6:00,0,0,0,0,0,0,0,0
2004/10/1 6:15,0,0,0,0,0,0,0,0
2004/10/1 6:30,0,0,0,0,0,0,0,0
2004/10/1 6:45,0,0,0.029945967,0,0,0,4.396068,0
2004/10/1 7:00,0,0,0,0,0,0,0,0
2004/10/1 7:15,0,0,0.006440027,0,0,0,0.945396,0
2004/10/1 7:30,0,0,0.011592016,0,0,0,1.701708,0
2004/10/1 7:45,0,0,0.366114033,0,0,0,53.74554,0
2004/10/1 8:00,0,0,0.006117956,0,0,0,0.898116,0
2004/10/1 8:15,0,0,0,0,0,0,0,0
2004/10/1 8:30,0,0,0.080177984,0,0,0,11.770128,0
2004/10/1 8:45,0,0,0.049588038,0,0,0,7.279524,0
2004/10/1 9:00,0,0,0,0,0,0,0,0
2004/10/1 9:15,0,0,0,0,0,0,0,0
2004/10/1 9:30,0,0,0,0,0,0,0,0
2004/10/1 9:45,0,0,0,0,0,0,0,0
2004/10/1 10:00,0,0,0.019963978,0,0,0,2.930712,0
2004/10/1 10:15,0,0,0,0,0,0,0,0
2004/10/1 10:30,0,0,0,0,0,0,0,0
2004/10/1 10:45,0,0,0,0,0,0,0,0
2004/10/1 11:00,0,0,0,0,0,0,0,0
2004/10/1 11:15,0,0,0,0,0,0,0,0
2004/10/1 11:30,0,0,0,0,0,0,0,0
2004/10/1 11:45,0,0,0,0,0,0,0,0
2004/10/1 12:00,0,0,0,0,0,0,0,0
2004/10/1 12:15,0,0,0,0,0,0,0,0
2004/10/1 12:30,0,0,0,0,0,0,0,0
2004/10/1 12:45,0,0,0,0,0,0,0,0
2004/10/1 13:00,0,0,0,0,0,0,0,0
2004/10/1 13:15,0,0,0,0,0,0,0,0
2004/10/1 13:30,0,0,0,0,0,0,0,0
2004/10/1 13:45,0,0,0,0,0,0,0,0
2004/10/1 14:00,0,0,0,0,0,0,0,0
2004/10/1 14:15,0,0,0,0,0,0,0,0
2004/10/1 14:30,0,0,0,0,0,0,0,0
2004/10/1 14:45,0,0,0,0,0,0,0,0
2004/10/1 15:00,0,0,0,0,0,0,0,0
2004/10/1 15:15,0,0,0,0,0,0,0,0
2004/10/1 15:30,0,0,0,0,0,0,0,0
2004/10/1 15:45,0,0,0,0,0,0,0,0
2004/10/1 16:00,0,0,0,0,0,0,0,0
2004/10/1 16:15,0,0,0,0,0,0,0,0
2004/10/1 16:30,0,0,0,0,0,0,0,0
2004/10/1 16:45,0,0,0,0,0,0,0,0
2004/10/1 17:00,0,0,0,0,0,0,0,0
2004/10/1 17:15,0,0,0,0,0,0,0,0
2004/10/1 17:30,0,0,0,0,0,0,0,0
2004/10/1 17:45,0,0,0,0,0,0,0,0
2004/10/1 18:00,0,0,0,0,0,0,0,0
2004/10/1 18:15,0,0,0,0,0,0,0,0
2004/10/1 18:30,0,0,0.074382016,0,0,0,10.91928,0
2004/10/1 18:45,0,0,0,0,0,0,0,0
2004/10/1 19:00,0,0,0,0,0,0,0,0
2004/10/1 19:15,0,0,0,0,0,0,0,0
2004/10/1 19:30,0,0,0,0,0,0,0,0
2004/10/1 19:45,0,0,0,0,0,0,0,0
2004/10/1 20:00,0,0,0,0,0,0,0,0
2004/10/1 20:15,0,0,0,0,0,0,0,0
2004/10/1 20:30,0,0,0,0,0,0,0,0
2004/10/1 20:45,0,0,0.011431063,0,0,0,1.67808,0
2004/10/1 21:00,0,0,0,0,0,0,0,0
2004/10/1 21:15,0,0,0,0,0,0,0,0
2004/10/1 21:30,0,0,0.098049074,0,0,0,14.393604,0
2004/10/1 21:45,0,0,0.103684005,0,0,0,15.220812,0
2004/10/1 22:00,0,0,0,0,0,0,0,0
2004/10/1 22:15,0,0,0,0,0,0,0,0
2004/10/1 22:30,0,0,0,0,0,0,0,0
2004/10/1 22:45,0,0,0,0,0,0,0,0
2004/10/1 23:00,0,0,0,0,0,0,0,0
2004/10/1 23:15,0,0,0,0,0,0,0,0
2004/10/1 23:30,0,0,0,0,0,0,0,0
2004/10/1 23:45,0,0,0,0,0,0,0,0
2004/10/2 0:00,0,0,0,0,0,0,0,0
2004/10/2 0:15,0,0,0.04347,0,0,0,6.381396,0
2004/10/2 0:30,0,0,0.000321989,0,0,0,0.047268,0
2004/10/2 0:45,0,0,0,0,0,0,0,0
2004/10/2 1:00,0,0,0,0,0,0,0,0
2004/10/2 1:15,0,0,0,0,0,0,0,0
2004/10/2 1:30,0,0,0,0,0,0,0,0
2004/10/2 1:45,0,0,0,0,0,0,0,0
2004/10/2 2:00,0,0,0,0,0,0,0,0
2004/10/2 2:15,0,0,0,0,0,0,0,0
2004/10/2 2:30,0,0,0,0,0,0,0,0
2004/10/2 2:45,0,0,0,0,0,0,0,0
2004/10/2 3:00,0,0,0,0,0,0,0,0
2004/10/2 3:15,0,0,0,0,0,0,0,0
2004/10/2 3:30,0,0,0,0,0,0,0,0
2004/10/2 3:45,0,0,0,0,0,0,0,0
2004/10/2 4:00,0,0,0,0,0,0,0,0
2004/10/2 4:15,0,0,0,0,0,0,0,0
2004/10/2 4:30,0,0,0,0,0,0,0,0
2004/10/2 4:45,0,0,0,0,0,0,0,0
2004/10/2 5:00,0,0,0,0,0,0,0,0
2004/10/2 5:15,0,0,0,0,0,0,0,0
2004/10/2 5:30,0,0,0,0,0,0,0,0
2004/10/2 5:45,0,0,0,0,0,0,0,0
2004/10/2 6:00,0,0,0,0,0,0,0,0
2004/10/2 6:15,0,0,0,0,0,0,0,0
2004/10/2 6:30,0,0,0,0,0,0,0,0
2004/10/2 6:45,0,0,0.080499973,0,0,0,11.817396,0
2004/10/2 7:00,0,0,0.197225068,0,0,0,28.95264,0
2004/10/2 7:15,0,0,1.61E-04,0,0,0,0.02364,0
2004/10/2 7:30,0,0,0,0,0,0,0,0
2004/10/2 7:45,0,0,0,0,0,0,0,0
2004/10/2 8:00,0,0,0,0,0,0,0,0
2004/10/2 8:15,0,0,0,0,0,0,0,0
2004/10/2 8:30,0,0,0,0,0,0,0,0
2004/10/2 8:45,0,0,0.126545967,0,0,0,18.576948,0
2004/10/2 9:00,0,0,0.014811989,0,0,0,2.1744,0
2004/10/2 9:15,0,0,0,0,0,0,0,0
2004/10/2 9:30,0,0,0,0,0,0,0,0
2004/10/2 9:45,0,0,0,0,0,0,0,0
2004/10/2 10:00,0,0,0.026082016,0,0,0,3.82884,0
2004/10/2 10:15,0,0,0.097888038,0,0,0,14.369964,0
2004/10/2 10:30,0,0,0,0,0,0,0,0
2004/10/2 10:45,0,0,0,0,0,0,0,0
2004/10/2 11:00,0,0,0,0,0,0,0,0
2004/10/2 11:15,0,0,0,0,0,0,0,0
2004/10/2 11:30,0,0,0,0,0,0,0,0
2004/10/2 11:45,0,0,0,0,0,0,0,0
2004/10/2 12:00,0,0,0,0,0,0,0,0
2004/10/2 12:15,0,0,0,0,0,0,0,0
2004/10/2 12:30,0,0,0,0,0,0,0,0
2004/10/2 12:45,0,0,0,0,0,0,0,0
2004/10/2 13:00,0,0,0,0,0,0,0,0
2004/10/2 13:15,0,0,0,0,0,0,0,0
2004/10/2 13:30,0,0,0,0,0,0,0,0
2004/10/2 13:45,0,0,0,0,0,0,0,0
2004/10/2 14:00,0,0,0,0,0,0,0,0
2004/10/2 14:15,0,0,0,0,0,0,0,0
2004/10/2 14:30,0,0,0,0,0,0,0,0
2004/10/2 14:45,0,0,0,0,0,0,0,0
2004/10/2 15:00,0,0,0,0,0,0,0,0
2004/10/2 15:15,0,0,0,0,0,0,0,0
2004/10/2 15:30,0,0,0,0,0,0,0,0
2004/10/2 15:45,0,0,0,0,0,0,0,0
2004/10/2 16:00,0,0,0,0,0,0,0,0
2004/10/2 16:15,0,0,0,0,0,0,0,0
2004/10/2 16:30,0,0,0,0,0,0,0,0
2004/10/2 16:45,0,0,0,0,0,0,0,0
2004/10/2 17:00,0,0,0,0,0,0,0,0
2004/10/2 17:15,0,0,0,0,0,0,0,0
2004/10/2 17:30,0,0,0,0,0,0,0,0
2004/10/2 17:45,0,0,0,0,0,0,0,0
2004/10/2 18:00,0,0,0,0,0,0,0,0
2004/10/2 18:15,0,0,0,0,0,0,0,0
2004/10/2 18:30,0,0,0,0,0,0,0,0
2004/10/2 18:45,0,0,0,0,0,0,0,0
2004/10/2 19:00,0,0,0,0,0,0,0,0
2004/10/2 19:15,0,0,0,0,0,0,0,0
2004/10/2 19:30,0,0,0,0,0,0,0,0
2004/10/2 19:45,0,0,0,0,0,0,0,0
2004/10/2 20:00,0,0,0.388010027,0,0,0,56.959872,0
2004/10/2 20:15,0,0,0.220570054,0,0,0,32.379684,0
2004/10/2 20:30,0,0,0.039606049,0,0,0,5.814168,0
2004/10/2 20:45,0,0,0,0,0,0,0,0
2004/10/2 21:00,0,0,0.023183951,0,0,0,3.403404,0
2004/10/2 21:15,0,0,0.018676022,0,0,0,2.74164,0
2004/10/2 21:30,0,0,0,0,0,0,0,0
2004/10/2 21:45,0,0,0.042182044,0,0,0,6.192324,0
2004/10/2 22:00,0,0,0.047012044,0,0,0,6.901368,0
2004/10/2 22:15,0,0,0.036707984,0,0,0,5.388732,0
2004/10/2 22:30,0,0,0.021252016,0,0,0,3.119796,0
2004/10/2 22:45,0,0,0,0,0,0,0,0
2004/10/2 23:00,0,0,0.428581962,0,0,0,62.915832,0
2004/10/2 23:15,0,0,0.130088011,0,0,0,19.09692,0
2004/10/2 23:30,0,0,0.039767003,0,0,0,5.837796,0
2004/10/2 23:45,0,0,0,0,0,0,0,0
2004/10/3 0:00,0,0,0,0,0,0,0,0
2004/10/3 0:15,0,0,0,0,0,0,0,0
2004/10/3 0:30,0,0,0,0,0,0,0,0
2004/10/3 0:45,0,0,0,0,0,0,0,0
2004/10/3 1:00,0,0,0,0,0,0,0,0
2004/10/3 1:15,0,0,0,0,0,0,0,0
2004/10/3 1:30,0,0,0,0,0,0,0,0
2004/10/3 1:45,0,0,0,0,0,0,0,0
2004/10/3 2:00,0,0,0,0,0,0,0,0
2004/10/3 2:15,0,0,0,0,0,0,0,0
2004/10/3 2:30,0,0,0,0,0,0,0,0
2004/10/3 2:45,0,0,0,0,0,0,0,0
2004/10/3 3:00,0,0,0,0,0,0,0,0
2004/10/3 3:15,0,0,0,0,0,0,0,0
2004/10/3 3:30,0,0,0,0,0,0,0,0
2004/10/3 3:45,0,0,0,0,0,0,0,0
2004/10/3 4:00,0,0,0,0,0,0,0,0
2004/10/3 4:15,0,0,0,0,0,0,0,0
2004/10/3 4:30,0,0,0,0,0,0,0,0
2004/10/3 4:45,0,0,0,0,0,0,0,0
2004/10/3 5:00,0,0,0,0,0,0,0,0
2004/10/3 5:15,0,0,0,0,0,0,0,0
2004/10/3 5:30,0,0,0,0,0,0,0,0
2004/10/3 5:45,0,0,0,0,0,0,0,0
2004/10/3 6:00,0,0,0,0,0,0,0,0
2004/10/3 6:15,0,0,0,0,0,0,0,0
2004/10/3 6:30,0,0,0,0,0,0,0,0
2004/10/3 6:45,0,0,0,0,0,0,0,0
2004/10/3 7:00,0,0,0,0,0,0,0,0
2004/10/3 7:15,0,0,0,0,0,0,0,0
2004/10/3 7:30,0,0,0,0,0,0,0,0
2004/10/3 7:45,0,0,0.237797003,0,0,0,34.9086,0
2004/10/3 8:00,0,0,0,0,0,0,0,0
2004/10/3 8:15,0,0,0,0,0,0,0,0
2004/10/3 8:30,0,0,0,0,0,0,0,0
2004/10/3 8:45,0,0,0,0,0,0,0,0
2004/10/3 9:00,0,0,0,0,0,0,0,0
2004/10/3 9:15,0,0,0.054417956,0,0,0,7.988556,0
2004/10/3 9:30,0,0,0,0,0,0,0,0
2004/10/3 9:45,0,0,0,0,0,0,0,0
2004/10/3 10:00,0,0,0,0,0,0,0,0
2004/10/3 10:15,0,0,0.114954033,0,0,0,16.875252,0
2004/10/3 10:30,0,0,0,0,0,0,0,0
2004/10/3 10:45,0,0,0,0,0,0,0,0
2004/10/3 11:00,0,0,0,0,0,0,0,0
2004/10/3 11:15,0,0,0,0,0,0,0,0
2004/10/3 11:30,0,0,0,0,0,0,0,0
2004/10/3 11:45,0,0,0.011270027,0,0,0,1.65444,0
2004/10/3 12:00,0,0,0.022217984,0,0,0,3.2616,0
2004/10/3 12:15,0,0,0.005473978,0,0,0,0.80358,0
2004/10/3 12:30,0,0,0.005795967,0,0,0,0.850848,0
2004/10/3 12:45,0,0,0,0,0,0,0,0
2004/10/3 13:00,0,0,0,0,0,0,0,0
2004/10/3 13:15,0,0,0.29946,0,0,0,43.960728,0
2004/10/3 13:30,0,0,0.301070027,0,0,0,44.19708,0
2004/10/3 13:45,0,0,0,0,0,0,0,0
2004/10/3 14:00,0,0,0,0,0,0,0,0
2004/10/3 14:15,0.072932943,0,0,0,10.706556,0,0,0
2004/10/3 14:30,0.032522044,0,0,0,4.774236,0,0,0
2004/10/3 14:45,0.032039019,0,0,0,4.703328,0,0,0
2004/10/3 15:00,0.03171703,0,0,0,4.65606,0,0,0
2004/10/3 15:15,0.03171703,0,0,0,4.65606,0,0,0
2004/10/3 15:30,0.031555995,0,0,0,4.63242,0,0,0
2004/10/3 15:45,0.031394959,0,0,0,4.60878,0,0,0
2004/10/3 16:00,0.031716948,0,0,0,4.656048,0,0,0
2004/10/3 16:15,0.033327057,0,0,0,4.892412,0,0,0
2004/10/3 16:30,0.037996022,0,0,0,5.577816,0,0,0
2004/10/3 16:45,0.040572016,0,0,0,5.955972,0,0,0
2004/10/3 17:00,0.040572016,0,0,0,5.955972,0,0,0
2004/10/3 17:15,0.038156975,0,0,0,5.601444,0,0,0
2004/10/3 17:30,0.031878065,0,0.00483,0,4.6797,0,0.709044,0
2004/10/3 17:45,0.032039019,0,0.116563978,0,4.703328,0,17.111592,0
2004/10/3 18:00,0.032038937,0,0.000321989,0,4.703316,0,0.047268,0
2004/10/3 18:15,0.032039019,0,0,0,4.703328,0,0,0
2004/10/3 18:30,0.032199973,0,0,0,4.726956,0,0,0
2004/10/3 18:45,0.032200054,0,0.016100027,0,4.726968,0,2.363484,0
2004/10/3 19:00,0.032360926,0,0.03864,0,4.750584,0,5.672352,0
2004/10/3 19:15,0.032361008,0,0,0,4.750596,0,0,0
2004/10/3 19:30,0.032522044,0,0,0,4.774236,0,0,0
2004/10/3 19:45,0.035580981,0,0.229425041,0,5.223288,0,33.679596,0
2004/10/3 20:00,0.04073297,0,0.353716921,0,5.9796,0,51.925644,0
2004/10/3 20:15,0.04073297,0,0.042342997,0,5.9796,0,6.215952,0
2004/10/3 20:30,0.04073297,0,0.080982997,0,5.9796,0,11.888304,0
2004/10/3 20:45,0.037191008,0,0.036869019,0,5.45964,0,5.412372,0
2004/10/3 21:00,0.032199973,0,0.156975041,0,4.726956,0,23.043936,0
2004/10/3 21:15,0.032039019,0,0.042181962,0,4.703328,0,6.192312,0
2004/10/3 21:30,0.032361008,0,0,0,4.750596,0,0,0
2004/10/3 21:45,0.032361008,0,0,0,4.750596,0,0,0
2004/10/3 22:00,0.032199973,0,0.041537984,0,4.726956,0,6.097776,0
2004/10/3 22:15,0.032361008,0,0,0,4.750596,0,0,0
2004/10/3 22:30,0.032199973,0,0.435666049,0,4.726956,0,63.955776,0
2004/10/3 22:45,0.032199973,0,0.02141297,0,4.726956,0,3.143424,0
2004/10/3 23:00,0.032521962,0,0,0,4.774224,0,0,0
2004/10/3 23:15,0.041537984,0,0.020125014,0,6.097776,0,2.954352,0
2004/10/3 23:30,0.040894005,0,0,0,6.00324,0,0,0
2004/10/3 23:45,0.041376948,0,0.020768992,0,6.074136,0,3.048888,0
2004/10/4 0:00,0.037191008,0,1.61E-04,0,5.45964,0,0.02364,0
2004/10/4 0:15,0.032361008,0,0,0,4.750596,0,0,0
2004/10/4 0:30,0.032038937,0,0,0,4.703316,0,0,0
2004/10/4 0:45,0.032039019,0,0,0,4.703328,0,0,0
2004/10/4 1:00,0.032038937,0,0,0,4.703316,0,0,0
2004/10/4 1:15,0.032039019,0,0,0,4.703328,0,0,0
2004/10/4 1:30,0.032200054,0,0,0,4.726968,0,0,0
2004/10/4 1:45,0.031878065,0,0,0,4.6797,0,0,0
2004/10/4 2:00,0.032199973,0,0,0,4.726956,0,0,0
2004/10/4 2:15,0.031878065,0,0,0,4.6797,0,0,0
2004/10/4 2:30,0.039767003,0,0,0,5.837796,0,0,0
2004/10/4 2:45,0.041054959,0,0,0,6.026868,0,0,0
2004/10/4 3:00,0.040411063,0,0,0,5.932344,0,0,0
2004/10/4 3:15,0.038479046,0,0,0,5.648724,0,0,0
2004/10/4 3:30,0.031878065,0,0,0,4.6797,0,0,0
2004/10/4 3:45,0.031877984,0,0,0,4.679688,0,0,0
2004/10/4 4:00,0.032039019,0,0,0,4.703328,0,0,0
2004/10/4 4:15,0.031877984,0,0,0,4.679688,0,0,0
2004/10/4 4:30,0.031877984,0,0,0,4.679688,0,0,0
2004/10/4 4:45,0.031877984,0,0,0,4.679688,0,0,0
2004/10/4 5:00,0.032039019,0,0,0,4.703328,0,0,0
2004/10/4 5:15,0.032039019,0,0,0,4.703328,0,0,0
2004/10/4 5:30,0.031878065,0,0,0,4.6797,0,0,0
2004/10/4 5:45,0.032361008,0,0,0,4.750596,0,0,0
2004/10/4 6:00,0.038801035,0,0,0,5.695992,0,0,0
2004/10/4 6:15,0.040571935,0,0,0,5.95596,0,0,0
2004/10/4 6:30,0.039927956,0,0,0,5.861424,0,0,0
2004/10/4 6:45,0.040411063,0,0,0,5.932344,0,0,0
2004/10/4 7:00,0.032039019,0,0,0,4.703328,0,0,0
2004/10/4 7:15,0.031877984,0,0.073255014,0,4.679688,0,10.753836,0
2004/10/4 7:30,0.031877984,0,0.402017003,0,4.679688,0,59.016096,0
2004/10/4 7:45,0.032039019,0,0.047978011,0,4.703328,0,7.043172,0
2004/10/4 8:00,0.032039019,0,0,0,4.703328,0,0,0
2004/10/4 8:15,0.032039019,0,0,0,4.703328,0,0,0
2004/10/4 8:30,0.032199973,0,0,0,4.726956,0,0,0
2004/10/4 8:45,0.032200054,0,0.024311035,0,4.726968,0,3.56886,0
2004/10/4 9:00,0.032039019,0,0.15665297,0,4.703328,0,22.996656,0
2004/10/4 9:15,0.033326975,0,0.015455967,0,4.8924,0,2.268936,0
2004/10/4 9:30,0.043148011,0,0,0,6.334128,0,0,0
2004/10/4 9:45,0.042504033,0,0.032039019,0,6.239592,0,4.703328,0
2004/10/4 10:00,0.042182044,0,0,0,6.192324,0,0,0
2004/10/4 10:15,0.032522044,0,0,0,4.774236,0,0,0
2004/10/4 10:30,0.032039019,0,0,0,4.703328,0,0,0
2004/10/4 10:45,0.032038937,0,0,0,4.703316,0,0,0
2004/10/4 11:00,0.03171703,0,0,0,4.65606,0,0,0
2004/10/4 11:15,0.031877984,0,0,0,4.679688,0,0,0
2004/10/4 11:30,0.031716948,0,0,0,4.656048,0,0,0
2004/10/4 11:45,0.031555995,0,0,0,4.63242,0,0,0
2004/10/4 12:00,0.031877984,0,0,0,4.679688,0,0,0
2004/10/4 12:15,0.03171703,0,0,0,4.65606,0,0,0
2004/10/4 12:30,0.033649046,0,0,0,4.93968,0,0,0
2004/10/4 12:45,0.039283978,0,0,0,5.766888,0,0,0
2004/10/4 13:00,0.038801035,0,0,0,5.695992,0,0,0
2004/10/4 13:15,0.038961989,0,0,0,5.71962,0,0,0
2004/10/4 13:30,0.037996022,0,0.054257003,0,5.577816,0,7.964928,0
2004/10/4 13:45,0.032682997,0,0,0,4.797864,0,0,0
2004/10/4 14:00,0.031716948,0,0,0,4.656048,0,0,0
2004/10/4 14:15,0.031555995,0,0,0,4.63242,0,0,0
2004/10/4 14:30,0.031395041,0,0,0,4.608792,0,0,0
2004/10/4 14:45,0.031394959,0,0,0,4.60878,0,0,0
2004/10/4 15:00,0.03171703,0,0,0,4.65606,0,0,0
2004/10/4 15:15,0.03171703,0,0,0,4.65606,0,0,0
2004/10/4 15:30,0.03171703,0,0,0,4.65606,0,0,0
2004/10/4 15:45,0.03171703,0,0,0,4.65606,0,0,0
2004/10/4 16:00,0.03171703,0,0,0,4.65606,0,0,0
2004/10/4 16:15,0.031555995,0,0,0,4.63242,0,0,0
2004/10/4 16:30,0.031555995,0,0,0,4.63242,0,0,0
2004/10/4 16:45,0.03171703,0,0,0,4.65606,0,0,0
2004/10/4 17:00,0.031878065,0,0,0,4.6797,0,0,0
2004/10/4 17:15,0.033971035,0,0.005473978,0,4.986948,0,0.80358,0
2004/10/4 17:30,0.037029973,0,0,0,5.436,0,0,0
2004/10/4 17:45,0.037191008,0,0.012880054,0,5.45964,0,1.890792,0
2004/10/4 18:00,0.038157057,0,0.109802044,0,5.601456,0,16.11894,0
2004/10/4 18:15,0.037996022,0,0.000321989,0,5.577816,0,0.047268,0
2004/10/4 18:30,0.037191008,0,0,0,5.45964,0,0,0
2004/10/4 18:45,0.03171703,0,0.150213025,0,4.65606,0,22.051272,0
2004/10/4 19:00,0.031877984,0,0.010465014,0,4.679688,0,1.536264,0
2004/10/4 19:15,0.03171703,0,0,0,4.65606,0,0,0
2004/10/4 19:30,0.031877984,0,0,0,4.679688,0,0,0
2004/10/4 19:45,0.031556076,0,0,0,4.632432,0,0,0
2004/10/4 20:00,0.031555995,0,0,0,4.63242,0,0,0
2004/10/4 20:15,0.031555995,0,0,0,4.63242,0,0,0
2004/10/4 20:30,0.031395041,0,0,0,4.608792,0,0,0
2004/10/4 20:45,0.031234005,0,0,0,4.585152,0,0,0
2004/10/4 21:00,0.031233924,0,0,0,4.58514,0,0,0
2004/10/4 21:15,0.031555995,0,0.017710054,0,4.63242,0,2.599836,0
2004/10/4 21:30,0.031555995,0,0,0,4.63242,0,0,0
2004/10/4 21:45,0.031234005,0,0.313789046,0,4.585152,0,46.064232,0
2004/10/4 22:00,0.032039019,0,0.007889019,0,4.703328,0,1.158108,0
2004/10/4 22:15,0.039283978,0,0,0,5.766888,0,0,0
2004/10/4 22:30,0.039445014,0,0,0,5.790528,0,0,0
2004/10/4 22:45,0.038961989,0,0,0,5.71962,0,0,0
2004/10/4 23:00,0.038961989,0,0,0,5.71962,0,0,0
2004/10/4 23:15,0.032682997,0,0,0,4.797864,0,0,0
2004/10/4 23:30,0.031555995,0,0,0,4.63242,0,0,0
2004/10/4 23:45,0.031395041,0,0,0,4.608792,0,0,0
2004/10/5 0:00,0.031716948,0,0,0,4.656048,0,0,0
2004/10/5 0:15,0.031555995,0,0,0,4.63242,0,0,0
2004/10/5 0:30,0.031395041,0,0,0,4.608792,0,0,0
2004/10/5 0:45,0.03171703,0,0,0,4.65606,0,0,0
2004/10/5 1:00,0.031556076,0,0,0,4.632432,0,0,0
2004/10/5 1:15,0.032038937,0,0,0,4.703316,0,0,0
2004/10/5 1:30,0.031716948,0,0,0,4.656048,0,0,0
2004/10/5 1:45,0.031555995,0,0,0,4.63242,0,0,0
2004/10/5 2:00,0.03171703,0,0,0,4.65606,0,0,0
2004/10/5 2:15,0.037674033,0,0,0,5.530548,0,0,0
2004/10/5 2:30,0.039123025,0,0,0,5.74326,0,0,0
2004/10/5 2:45,0.039283978,0,0,0,5.766888,0,0,0
2004/10/5 3:00,0.03864,0,0,0,5.672352,0,0,0
2004/10/5 3:15,0.034453978,0,0,0,5.057844,0,0,0
2004/10/5 3:30,0.031555995,0,0,0,4.63242,0,0,0
2004/10/5 3:45,0.031555995,0,0,0,4.63242,0,0,0
2004/10/5 4:00,0.031394959,0,0,0,4.60878,0,0,0
2004/10/5 4:15,0.031555995,0,0,0,4.63242,0,0,0
2004/10/5 4:30,0.031395041,0,0,0,4.608792,0,0,0
2004/10/5 4:45,0.031877984,0,0,0,4.679688,0,0,0
2004/10/5 5:00,0.03171703,0,0,0,4.65606,0,0,0
2004/10/5 5:15,0.031555995,0,0,0,4.63242,0,0,0
2004/10/5 5:30,0.031716948,0,0,0,4.656048,0,0,0
2004/10/5 5:45,0.031555995,0,0,0,4.63242,0,0,0
2004/10/5 6:00,0.031877984,0,0,0,4.679688,0,0,0
2004/10/5 6:15,0.03171703,0,0,0,4.65606,0,0,0
2004/10/5 6:30,0.036869019,0,0,0,5.412372,0,0,0
2004/10/5 6:45,0.038961989,0,0,0,5.71962,0,0,0
2004/10/5 7:00,0.037191008,0,0.017387984,0,5.45964,0,2.552556,0
2004/10/5 7:15,0.045080027,0,0,0,6.617748,0,0,0
2004/10/5 7:30,0.033970954,0,0.3381,0,4.986936,0,49.63308,0
2004/10/5 7:45,0.032522044,0,0,0,4.774236,0,0,0
2004/10/5 8:00,0.032361008,0,0,0,4.750596,0,0,0
2004/10/5 8:15,0.032682997,0,0.016905041,0,4.797864,0,2.48166,0
2004/10/5 8:30,0.032521962,0,0,0,4.774224,0,0,0
2004/10/5 8:45,0.032521962,0,0.090481962,0,4.774224,0,13.282752,0
2004/10/5 9:00,0.032682997,0,0.051841962,0,4.797864,0,7.6104,0
2004/10/5 9:15,0.032522044,0,1.61E-04,0,4.774236,0,0.02364,0
2004/10/5 9:30,0.041215995,0,0.023828011,0,6.050508,0,3.497952,0
2004/10/5 9:45,0.042826022,0,0,0,6.28686,0,0,0
2004/10/5 10:00,0.042664986,0,0,0,6.26322,0,0,0
2004/10/5 10:15,0.035580981,0,0,0,5.223288,0,0,0
2004/10/5 10:30,0.032521962,0,0,0,4.774224,0,0,0
2004/10/5 10:45,0.032361008,0,0,0,4.750596,0,0,0
2004/10/5 11:00,0.032521962,0,0,0,4.774224,0,0,0
2004/10/5 11:15,0.032521962,0,0,0,4.774224,0,0,0
2004/10/5 11:30,0.032682997,0,0,0,4.797864,0,0,0
2004/10/5 11:45,0.032682997,0,0,0,4.797864,0,0,0
2004/10/5 12:00,0.032522044,0,0,0,4.774236,0,0,0
2004/10/5 12:15,0.042181962,0,0,0,6.192312,0,0,0
2004/10/5 12:30,0.042826022,0,0,0,6.28686,0,0,0
2004/10/5 12:45,0.043148011,0,0,0,6.334128,0,0,0
2004/10/5 13:00,0.034937003,0,0,0,5.128752,0,0,0
2004/10/5 13:15,0.032682997,0,0,0,4.797864,0,0,0
2004/10/5 13:30,0.032521962,0,0,0,4.774224,0,0,0
2004/10/5 13:45,0.032521962,0,0,0,4.774224,0,0,0
2004/10/5 14:00,0.032521962,0,0,0,4.774224,0,0,0
2004/10/5 14:15,0.032522044,0,0,0,4.774236,0,0,0
2004/10/5 14:30,0.032682997,0,0,0,4.797864,0,0,0
2004/10/5 14:45,0.032682997,0,0,0,4.797864,0,0,0
2004/10/5 15:00,0.042181962,0,0,0,6.192312,0,0,0
2004/10/5 15:15,0.043147929,0,0,0,6.334116,0,0,0
2004/10/5 15:30,0.043148011,0,0,0,6.334128,0,0,0
2004/10/5 15:45,0.034131989,0,0,0,5.010576,0,0,0
2004/10/5 16:00,0.032361008,0,0,0,4.750596,0,0,0
2004/10/5 16:15,0.032521962,0,0,0,4.774224,0,0,0
2004/10/5 16:30,0.032522044,0,0,0,4.774236,0,0,0
2004/10/5 16:45,0.032199973,0,0,0,4.726956,0,0,0
2004/10/5 17:00,0.032361008,0,0,0,4.750596,0,0,0
2004/10/5 17:15,0.032522044,0,0,0,4.774236,0,0,0
2004/10/5 17:30,0.032682997,0,0,0,4.797864,0,0,0
2004/10/5 17:45,0.04282594,0,0,0,6.286848,0,0,0
2004/10/5 18:00,0.043148011,0,0,0,6.334128,0,0,0
2004/10/5 18:15,0.043309046,0,0,0,6.357768,0,0,0
2004/10/5 18:30,0.032843951,0,0,0,4.821492,0,0,0
2004/10/5 18:45,0.032361008,0,0,0,4.750596,0,0,0
2004/10/5 19:00,0.032361008,0,0.062468011,0,4.750596,0,9.170304,0
2004/10/5 19:15,0.032521962,0,0.467544033,0,4.774224,0,68.635464,0
2004/10/5 19:30,0.032521962,0,0.000321989,0,4.774224,0,0.047268,0
2004/10/5 19:45,0.032522044,0,0,0,4.774236,0,0,0
2004/10/5 20:00,0.032361008,0,0,0,4.750596,0,0,0
2004/10/5 20:15,0.032361008,0,0,0,4.750596,0,0,0
2004/10/5 20:30,0.042181962,0,0.357580954,0,6.192312,0,52.492884,0
2004/10/5 20:45,0.042021008,0,0.434377929,0,6.168684,0,63.76668,0
2004/10/5 21:00,0.042181962,0,0,0,6.192312,0,0,0
2004/10/5 21:15,0.035258992,0,0.149407929,0,5.17602,0,21.933084,0
2004/10/5 21:30,0.032199973,0,0.088550027,0,4.726956,0,12.999144,0
2004/10/5 21:45,0.032361008,0,0,0,4.750596,0,0,0
2004/10/5 22:00,0.032200054,0,0.184023025,0,4.726968,0,27.01458,0
2004/10/5 22:15,0.032361008,0,0,0,4.750596,0,0,0
2004/10/5 22:30,0.032199973,0,0,0,4.726956,0,0,0
2004/10/5 22:45,0.032361008,0,0,0,4.750596,0,0,0
2004/10/5 23:00,0.032522044,0,0,0,4.774236,0,0,0
2004/10/5 23:15,0.044918992,0,0,0,6.594108,0,0,0
2004/10/5 23:30,0.044435967,0,0,0,6.5232,0,0,0
2004/10/5 23:45,0.040571935,0,0,0,5.95596,0,0,0
2004/10/6 0:00,0.032361008,0,0,0,4.750596,0,0,0
2004/10/6 0:15,0.032682997,0,0,0,4.797864,0,0,0
2004/10/6 0:30,0.032522044,0,0,0,4.774236,0,0,0
2004/10/6 0:45,0.032361008,0,0.094024005,0,4.750596,0,13.802724,0
2004/10/6 1:00,0.033004986,0,0,0,4.845132,0,0,0
2004/10/6 1:15,0.032522044,0,0,0,4.774236,0,0,0
2004/10/6 1:30,0.043308965,0,0,0,6.357756,0,0,0
2004/10/6 1:45,0.045724005,0,0,0,6.712284,0,0,0
2004/10/6 2:00,0.042826022,0,0,0,6.28686,0,0,0
2004/10/6 2:15,0.033005068,0,0,0,4.845144,0,0,0
2004/10/6 2:30,0.033166022,0,0,0,4.868772,0,0,0
2004/10/6 2:45,0.033004986,0,0,0,4.845132,0,0,0
2004/10/6 3:00,0.033327057,0,0,0,4.892412,0,0,0
2004/10/6 3:15,0.033166022,0,0,0,4.868772,0,0,0
2004/10/6 3:30,0.042021008,0,0,0,6.168684,0,0,0
2004/10/6 3:45,0.047816975,0,0,0,7.019532,0,0,0
2004/10/6 4:00,0.044113978,0,0,0,6.475932,0,0,0
2004/10/6 4:15,0.033648965,0,0,0,4.939668,0,0,0
2004/10/6 4:30,0.033648965,0,0,0,4.939668,0,0,0
2004/10/6 4:45,0.033648965,0,0,0,4.939668,0,0,0
2004/10/6 5:00,0.03381,0,0,0,4.963308,0,0,0
2004/10/6 5:15,0.035580981,0,0,0,5.223288,0,0,0
2004/10/6 5:30,0.049266049,0,0,0,7.232256,0,0,0
2004/10/6 5:45,0.049588038,0,0,0,7.279524,0,0,0
2004/10/6 6:00,0.03590297,0,0,0,5.270556,0,0,0
2004/10/6 6:15,0.034131989,0,0,0,5.010576,0,0,0
2004/10/6 6:30,0.034131989,0,0,0,5.010576,0,0,0
2004/10/6 6:45,0.034293025,0,0,0,5.034216,0,0,0
2004/10/6 7:00,0.037835068,0,0,0,5.554188,0,0,0
2004/10/6 7:15,0.049587956,0,0,0,7.279512,0,0,0
2004/10/6 7:30,0.048621989,0,0,0,7.137708,0,0,0
2004/10/6 7:45,0.034131989,0,0,0,5.010576,0,0,0
2004/10/6 8:00,0.033488011,0,0,0,4.91604,0,0,0
2004/10/6 8:15,0.033327057,0,0,0,4.892412,0,0,0
2004/10/6 8:30,0.033327057,0,0.004668965,0,4.892412,0,0.685404,0
2004/10/6 8:45,0.033326975,0,0.000483025,0,4.8924,0,0.070908,0
2004/10/6 9:00,0.03864,0,0,0,5.672352,0,0,0
2004/10/6 9:15,0.046368065,0,0.005473978,0,6.806832,0,0.80358,0
2004/10/6 9:30,0.046529019,0,0.005795967,0,6.83046,0,0.850848,0
2004/10/6 9:45,0.034615014,0,0.209300027,0,5.081484,0,30.725244,0
2004/10/6 10:00,0.033004986,0,0.207046022,0,4.845132,0,30.394356,0
2004/10/6 10:15,0.032844033,0,0,0,4.821504,0,0,0
2004/10/6 10:30,0.032844033,0,0,0,4.821504,0,0,0
2004/10/6 10:45,0.032682997,0,0,0,4.797864,0,0,0
2004/10/6 11:00,0.032682997,0,0,0,4.797864,0,0,0
2004/10/6 11:15,0.032682997,0,0,0,4.797864,0,0,0
2004/10/6 11:30,0.041859973,0,0,0,6.145044,0,0,0
2004/10/6 11:45,0.043148011,0,0,0,6.334128,0,0,0
2004/10/6 12:00,0.042665068,0,0,0,6.263232,0,0,0
2004/10/6 12:15,0.034453978,0,0,0,5.057844,0,0,0
2004/10/6 12:30,0.032521962,0,0,0,4.774224,0,0,0
2004/10/6 12:45,0.032361008,0,0,0,4.750596,0,0,0
2004/10/6 13:00,0.032521962,0,0,0,4.774224,0,0,0
2004/10/6 13:15,0.032521962,0,0,0,4.774224,0,0,0
2004/10/6 13:30,0.032522044,0,0,0,4.774236,0,0,0
2004/10/6 13:45,0.032361008,0,0,0,4.750596,0,0,0